Weather History for Wolf Point, MT

Change the Weather History Date:

Monday, March 17, 2014

  Actual Average Record
Temperature  
Mean Temperature 41 °F -  
Max Temperature 50 °F 44 °F 64 °F (2012)
Min Temperature 32 °F 18 °F 6 °F (2013)
Degree Days  
Heating Degree Days 24    
Cooling Degree Days 0    
Moisture  
Dew Point 31 °F    
Average Humidity 72    
Maximum Humidity 85    
Minimum Humidity 43    
Precipitation  
Precipitation 0.04 in 0.01 in 0.19 in (2013)
Month to date precipitation 0.15 0.20  
Year to date precipitation 0.29 0.72  
Sea Level Pressure  
Sea Level Pressure 29.55 in    
Wind  
Wind Speed 5 mph (NE)    
Max Wind Speed 12 mph    
Max Gust Speed -    
Visibility 10 miles    
Events Rain    
T = Trace of Precipitation, MM = Missing Value Source: NWS Daily Summary

Daily Weather History Graph

Daily Weather History Graph

Search for Another Location

Airport:

Trip Planner

Search our weather history database for the weather conditions in past years. The results will help you decide how hot, cold, wet, or windy it might be!

Date:

Astronomy

Mar. 17, 2014 Rise Set
Actual Time 7:11 AM MDT 7:10 PM MDT
Civil Twilight 6:40 AM MDT 7:41 PM MDT
Nautical Twilight 6:03 AM MDT 8:18 PM MDT
Astronomical Twilight 5:26 AM MDT 8:55 PM MDT
Moon 8:38 PM MDT (3/17) 7:22 AM MDT (3/17)
Length of Visible Light 13h 01m
Length of Day
11h 59m
Full, 99% of the Moon is Illuminated
Mar 17
Full
Mar 23
Last Quarter
Mar 30
New
Apr 7
First Quarter
Apr 15
Full

Hourly Weather History & Observations

Time (MDT) Temp. Windchill Dew Point Humidity Pressure Visibility Wind Dir Wind Speed Gust Speed Precip Events Conditions
12:53 AM 35.1 °F - 30.9 °F 85% 29.59 in 10.0 mi Calm Calm - N/A   Mostly Cloudy
1:53 AM 33.1 °F - 28.9 °F 85% 29.56 in 10.0 mi Calm Calm - N/A   Scattered Clouds
2:53 AM 35.1 °F - 30.0 °F 82% 29.55 in 10.0 mi North - - N/A   Mostly Cloudy
3:53 AM 39.0 °F - 32.0 °F 76% 29.52 in 10.0 mi Calm Calm - N/A   Overcast
4:53 AM 37.9 °F 35.5 °F 30.9 °F 76% 29.49 in 10.0 mi Variable 3.5 mph - N/A   Mostly Cloudy
5:53 AM 34.0 °F 28.0 °F 28.9 °F 82% 29.46 in 10.0 mi NNE 6.9 mph - N/A   Clear
6:53 AM 34.0 °F 31.0 °F 30.0 °F 85% 29.46 in 10.0 mi ENE 3.5 mph - N/A   Clear
7:53 AM 34.0 °F 28.8 °F 30.0 °F 85% 29.46 in 10.0 mi NNE 5.8 mph - N/A   Overcast
8:53 AM 37.9 °F 31.5 °F 33.1 °F 83% 29.44 in 10.0 mi ENE 9.2 mph - N/A   Overcast
9:53 AM 42.1 °F 36.6 °F 34.0 °F 73% 29.44 in 10.0 mi East 9.2 mph - N/A   Overcast
10:53 AM 43.0 °F 37.2 °F 34.0 °F 71% 29.46 in 10.0 mi East 10.4 mph - N/A   Overcast
11:53 AM 43.0 °F 38.2 °F 35.1 °F 74% 29.48 in 9.0 mi East 8.1 mph - 0.00 in Rain Light Rain
12:00 PM 43.0 °F 37.2 °F 35.1 °F 74% 29.44 in 8.0 mi East 10.4 mph - 0.01 in Rain Light Rain
12:11 PM 42.1 °F 37.1 °F 36.0 °F 79% 29.44 in 10.0 mi East 8.1 mph - 0.01 in Rain Light Rain
12:53 PM 42.1 °F 37.1 °F 36.0 °F 79% 29.50 in 10.0 mi ENE 8.1 mph - 0.03 in Rain Light Rain
1:17 PM 43.0 °F 38.8 °F 37.0 °F 80% 29.46 in 10.0 mi East 6.9 mph - 0.01 in Rain Light Rain
1:53 PM 43.0 °F 37.7 °F 35.1 °F 74% 29.52 in 10.0 mi East 9.2 mph - 0.01 in Rain Light Rain
2:53 PM 45.0 °F 39.7 °F 34.0 °F 65% 29.52 in 10.0 mi East 10.4 mph - 0.00 in   Overcast
3:53 PM 48.0 °F - 33.1 °F 56% 29.53 in 10.0 mi ENE 10.4 mph - N/A   Overcast
4:53 PM 48.9 °F - 30.0 °F 48% 29.56 in 10.0 mi NE 8.1 mph - N/A   Overcast
5:53 PM 48.9 °F - 27.0 °F 43% 29.60 in 10.0 mi NE 11.5 mph - N/A   Scattered Clouds
6:53 PM 45.0 °F 41.8 °F 26.1 °F 48% 29.64 in 10.0 mi NNE 5.8 mph - N/A   Partly Cloudy
7:53 PM 42.1 °F 36.6 °F 27.0 °F 55% 29.69 in 10.0 mi North 9.2 mph - N/A   Clear
8:53 PM 37.9 °F 31.5 °F 28.0 °F 68% 29.73 in 10.0 mi North 9.2 mph - N/A   Clear
9:53 PM 39.0 °F 32.3 °F 28.0 °F 65% 29.75 in 10.0 mi North 10.4 mph - N/A   Clear
10:53 PM 36.0 °F 28.5 °F 28.0 °F 73% 29.78 in 10.0 mi NNW 10.4 mph - N/A   Clear
11:53 PM 35.1 °F 28.6 °F 28.0 °F 76% 29.80 in 10.0 mi North 8.1 mph - N/A   Clear